Location: Moscow
(55.7500°N, 37.5830°E)
Time: 22:44:19
(UTC+03:00)

COSMOS 2251 DEB - Pass Details

Date: 11 July 2022
Orbit: 738 x 847 km, 74.1° (Epoch: 17 August)

Event Time Altitude Azimuth Distance (km) Brightness Sun altitude
Rises 01:00:59 0° 330° (NNW) 3,240 ? -11.9°
Reaches altitude 10° 01:03:56 10° 346° (NNW) 2,294 ? -11.9°
Maximum altitude 01:07:54 22° 37° (NE) 1,619 ? -11.8°
Drops below altitude 10° 01:11:48 10° 87° (E) 2,257 ? -11.7°
Sets 01:14:40 0° 103° (ESE) 3,173 ? -11.7°
